User: anonymous   Login
Location: Unspecified
(0.0000°N, 0.0000°E)
Time: 03:30:20
(UTC+00:00)
Language:

Galileo 6 - Orbit

View from above orbital plane
View from above orbital plane
View from above satellite
View from above satellite

Ground track
Ground track

The orbit data is extracted from the following two-line orbital elements,

1 40129U 14050B   17349.43429240 -.00000112 +00000-0 +00000-0 0  9993
2 40129 050.4496 036.9518 1636665 070.6532 306.3433 01.85520739022864
Epoch (UTC): 15 December 2017 10:25:22
Eccentricity: 0.1636665
inclination: 50.4496°
perigee height: 17020 km
apogee height: 26178 km
right ascension of ascending node: 36.9518°
argument of perigee: 70.6532°
revolutions per day: 1.85520739
mean anomaly at epoch: 306.3433°
orbit number at epoch: 2286

The dashed part of the orbit path shows where the satellite is in the earth's shadow,  

DLR